Simultaneous Nadir Overpasses (SNOs) Predictions

Prediction of SNOs between NOAA-19 and NPP Satellite Orbit:

Table of predicted SNOs for the next 14.0 days since TLE Epoch: 7/5/2019
Index Date (NOAA-19) Time (NOAA-19) Lat,Lon (NOAA-19) SZA (NOAA-19 ) Date (NPP) Time (NPP) Lat,Lon (NPP) SZA (NPP ) Distance(km) Time Diff (sec)
1 07/18/2019 22:07:38 -79.98, -11.13 118.41 07/18/2019 22:08:53 -79.99, -10.98 118.45 3.48 75
2 07/18/2019 22:58:35 80.00, 156.44 61.58 07/18/2019 22:59:38 79.99, 156.39 61.55 1.70 63
3 07/18/2019 23:49:38 -80.00, -36.38 118.41 07/18/2019 23:50:23 -80.00, -36.37 118.44 0.15 45
4 07/19/2019 00:40:36 80.00, 130.88 61.60 07/19/2019 00:41:08 79.99, 130.99 61.57 2.26 32
5 07/19/2019 01:31:38 -80.01, -61.63 118.41 07/19/2019 01:31:53 -80.00, -61.77 118.42 3.28 15
6 07/19/2019 02:22:36 80.01, 105.63 61.60 07/19/2019 02:22:38 79.99, 105.59 61.58 2.64 2
7 07/19/2019 03:13:39 -80.01, -87.20 118.40 07/19/2019 03:13:23 -80.00, -87.17 118.40 1.18 16
8 07/19/2019 04:04:37 80.01, 80.08 61.61 07/19/2019 04:04:08 79.99, 80.19 61.60 2.89 29
9 07/19/2019 04:55:40 -80.00,-112.76 118.38 07/19/2019 04:54:54 -80.03,-112.87 118.33 3.60 46
10 07/19/2019 05:46:38 80.01, 54.52 61.63 07/19/2019 05:45:39 80.03, 54.49 61.67 2.27 59




NCC Satellite Simultaneous Nadir Overpasses (SNOs) Prediction Service
